Regional Weather Roundup
Issued by NWS

Home | Current Version | Previous Version | Graphics & Text | Print | Product List | Glossary On
Versions: 1 2 3 4 5 6 7 8 9 10 11 12 13 14 15 16 17 18 19 20 21 22 23 24 25 26 27 28 29 30 31 32 33 34 35 36 37 38 39 40 41 42 43 44 45 46 47 48 49 50
000
ASUS43 KFSD 111502
RWRSD

WEATHER ROUNDUP FOR SOUTH DAKOTA
NATIONAL WEATHER SERVICE SIOUX FALLS SD
900 AM CST SUN DEC 11 2016

NOTE: "FAIR" INDICATES FEW OR NO CLOUDS BELOW 12,000 FEET WITH NO
SIGNIFICANT WEATHER AND/OR OBSTRUCTIONS TO VISIBILITY.


SDZ001>005-009-010-012>017-111600-
NORTHWEST AND NORTH CENTRAL SOUTH DAKOTA

CITY           SKY/WX    TMP DP  RH WIND       PRES   REMARKS
BUFFALO          N/A      7   2  80 NW15      29.81R WCI -10
FAITH            N/A      8   6  92 W8        29.90R WCI  -4
MOBRIDGE       FLURRIES   6  -1  73 NW9       29.91S WCI  -8
$$

SDZ012>016-024>037-041>051-057-063-072>074-111600-
SOUTHWEST AND SOUTH CENTRAL SOUTH DAKOTA

CITY           SKY/WX    TMP DP  RH WIND       PRES   REMARKS
RAPID CTY ARPT CLOUDY     7   2  80 W7        29.85S WCI  -5
PIERRE         LGT SNOW   9   5  84 NW12      29.95R FOG     WCI  -6
CUSTER         CLOUDY    20   5  52 VRB3      29.76R
ELLSWORTH AFB  CLOUDY     6   3  84 W8        29.84R WCI  -6
PHILIP         LGT SNOW  12   8  84 N7        29.95R FOG     WCI   1
PINE RIDGE     CLOUDY    -1  -2  95 CALM      29.88R
SPEARFISH      FAIR      25  10  54 W16G23    29.85R WCI  12
WINNER         CLOUDY    11   6  81 NW15      29.94R WCI  -5
$$

SDZ004>011-016>023-039-040-111600-
NORTHEAST SOUTH DAKOTA

CITY           SKY/WX    TMP DP  RH WIND       PRES   REMARKS
ABERDEEN       CLOUDY     9   3  77 N10       29.93R HAZE    WCI  -5
WATERTOWN      CLOUDY    12   8  84 E6        29.85R WCI   3
SISSETON         N/A     13  10  88 E3        29.92S
$$

SDZ017-020-022-023-036>040-048>070-111600-
SOUTHEAST SOUTH DAKOTA

CITY           SKY/WX    TMP DP  RH WIND       PRES   REMARKS
SIOUX FALLS    CLOUDY    22  19  89 N8        29.85R WCI  12
HURON          CLOUDY    13  10  88 NW12      29.92R WCI  -1
CHAMBERLAIN    CLOUDY    10   7  85 W9        29.93R WCI  -2
MITCHELL       CLOUDY    16  13  88 NW15      29.92R WCI   1
YANKTON        CLOUDY    25  19  80 NW12      29.87R WCI  14
$$

ABBREVIATIONS USED IN REMARKS
   TC - TEMPERATURE IN CELSIUS
  WCI - WIND CHILL INDEX
   HX - HEAT INDEX
  VSB - VISIBILITY




USA.gov is the U.S. government's official web portal to all federal, state and local government web resources and services.